Wind_Speed
11 11 10 10 9 10 12 12 12 11 11 11 10 10 9 7 6 5 5 5 6 6 6 5 6 6 7 8 6 6 5 4 3 4 4 3 2 1 6 8 10 14 15 16 15 15 18 21 23 27 28 29 28 28 27 27 27 26 25 24 23 22 22 21 20 19 18 18 17 16 15 15 15 15 15 15 16 17 18 20 22 23 24 25 25
11 11 11 10 10 11 13 13 12 12 12 11 11 10 9 8 7 6 5 5 5 5 5 5 5 6 7 8 7 8 7 4 3 3 3 3 3 3 4 7 10 12 15 16 16 15 17 20 22 25 28 29 28 28 27 27 26 26 25 24 23 23 22 21 20 19 18 17 16 15 14 13 13 13 13 14 15 16 17 19 21 22 22 23 24
12 12 11 11 10 12 14 14 13 13 12 12 11 10 9 8 8 7 6 6 6 5 5 6 6 7 8 8 9 9 8 6 4 4 3 3 3 4 4 7 10 12 15 16 17 16 16 19 21 23 27 28 28 27 27 27 26 26 25 24 23 23 22 21 20 19 17 16 15 14 13 12 12 11 12 13 13 14 16 18 19 20 21 22 23
14 13 12 11 11 12 14 14 14 13 12 12 11 10 9 9 8 8 7 7 6 6 6 6 7 8 8 9 9 9 8 7 6 5 5 3 1 3 4 7 10 12 14 16 17 18 17 19 20 22 26 28 28 28 27 27 27 26 25 24 23 23 22 21 20 19 17 16 14 13 12 11 10 10 10 11 12 13 15 17 18 19 20 21 22
15 13 12 12 12 13 13 14 14 13 12 11 11 10 9 8 8 8 7 7 7 7 6 6 7 7 7 8 8 8 7 7 7 7 6 5 2 0 3 7 10 12 14 16 18 19 18 19 21 22 24 27 28 28 27 26 27 26 25 24 24 23 22 21 20 19 17 16 14 12 11 10 9 8 8 9 10 12 14 16 16 17 19 20 21
14 12 11 12 12 12 13 13 13 12 11 11 10 9 7 7 7 7 7 6 6 6 5 5 6 6 6 6 7 7 7 7 7 7 6 6 5 4 4 6 10 12 13 15 17 19 20 19 21 23 24 26 27 27 27 26 26 26 26 25 24 24 23 22 20 19 17 16 14 12 11 10 8 7 7 8 9 11 13 14 15 16 17 18 19
12 11 11 12 12 12 12 13 13 12 10 10 9 7 6 6 6 7 6 6 5 4 4 4 5 5 5 5 6 6 6 6 6 6 6 6 7 7 7 8 10 12 12 13 16 18 20 20 21 23 24 26 27 27 27 26 26 26 26 26 25 24 24 23 21 19 18 16 15 13 11 10 8 7 7 7 8 10 11 13 14 15 16 17 18
11 10 12 12 11 12 12 12 12 11 11 10 8 7 5 5 5 6 6 5 4 4 4 4 5 5 4 5 5 5 5 5 5 4 5 6 7 8 8 9 10 11 12 12 14 17 19 20 21 23 24 26 27 27 27 27 26 26 26 26 26 25 24 23 22 20 18 16 14 13 11 10 8 7 6 6 7 8 10 11 12 13 15 16 17
11 10 12 12 12 11 12 12 11 11 11 9 7 6 5 4 5 5 5 5 4 4 4 4 5 5 5 5 4 4 4 4 3 2 2 4 7 7 7 9 10 10 11 12 13 15 18 20 21 23 25 26 27 27 27 27 27 26 26 26 26 25 24 24 22 20 18 16 15 14 12 10 9 7 6 6 6 7 9 10 11 12 13 15 16
11 10 12 13 12 12 12 11 10 11 10 8 6 5 4 4 3 4 5 5 5 4 4 5 5 5 5 5 4 3 3 2 2 1 1 2 5 6 5 7 9 10 10 11 12 13 16 19 21 23 25 26 27 27 28 28 27 27 26 26 27 26 25 24 23 21 19 17 16 14 12 10 9 7 6 5 5 6 8 8 9 10 12 13 14
12 11 12 12 12 12 12 11 10 10 10 8 6 5 5 4 3 3 4 4 4 4 4 5 5 5 5 5 4 3 2 2 1 1 1 0 2 4 4 5 6 8 9 10 11 12 14 17 21 23 25 28 28 28 28 28 28 27 26 26 27 26 25 24 23 22 20 19 17 14 12 11 9 7 6 5 4 5 5 6 7 8 10 11 13
12 11 11 10 11 12 12 11 11 10 9 8 7 6 5 4 4 3 4 4 4 3 4 5 5 5 5 5 4 4 2 1 0 1 1 1 1 2 4 3 4 6 7 9 10 12 13 16 20 24 26 28 29 29 29 28 28 27 27 26 26 26 26 25 24 22 22 21 18 15 15 13 11 9 6 4 3 3 3 4 5 6 8 9 11
12 11 11 10 11 12 12 12 11 10 9 9 7 7 6 5 4 3 3 4 3 3 4 4 5 5 5 5 5 4 2 1 1 1 1 2 3 3 3 2 3 4 5 8 10 12 13 14 19 24 26 28 29 30 29 28 28 28 27 26 26 26 26 25 24 23 23 21 18 18 17 13 11 10 7 4 2 1 0 1 3 4 6 8 10
12 11 11 11 11 11 12 12 11 11 10 9 7 7 6 5 4 4 4 4 4 3 3 4 4 4 5 5 4 4 2 2 2 3 2 3 4 4 4 3 3 3 4 6 9 11 13 14 17 23 26 28 29 30 30 29 28 28 27 27 26 26 26 26 25 24 24 21 19 19 16 13 12 10 8 6 3 2 2 1 1 2 4 6 8
11 10 10 11 11 10 11 11 12 11 10 9 7 7 6 5 4 4 4 4 4 4 4 3 3 4 4 4 4 3 2 2 3 3 3 4 5 5 5 4 4 4 4 6 8 10 13 14 16 21 26 27 28 30 30 30 29 28 27 27 26 26 26 26 26 25 24 23 21 20 16 13 13 11 9 7 6 5 4 4 2 1 3 5 7
11 10 9 9 9 9 11 12 12 12 11 10 8 7 6 5 4 4 3 3 4 4 4 3 3 3 3 4 3 2 2 2 3 3 3 4 4 5 6 5 4 4 4 5 7 9 11 14 15 19 24 27 28 30 30 31 30 28 27 27 26 27 26 26 27 26 25 24 22 21 18 15 14 13 11 10 8 7 6 5 4 2 3 4 6
11 10 9 8 8 9 10 10 10 12 12 12 10 8 6 6 5 4 4 5 5 5 5 5 4 3 4 3 2 2 2 3 3 3 3 4 4 5 7 6 5 6 5 5 6 9 11 12 13 16 22 25 28 30 30 31 31 29 27 26 26 26 26 26 26 26 26 25 24 24 20 17 16 15 14 13 11 9 8 7 6 4 3 4 5
11 10 8 7 8 8 8 8 9 11 12 12 11 10 8 6 6 6 6 6 5 6 6 6 5 4 4 3 3 2 3 3 4 4 3 4 5 6 7 7 7 7 7 6 6 8 10 11 12 14 21 24 26 29 31 31 31 30 28 26 25 26 26 26 26 26 26 25 25 26 22 19 19 17 16 15 13 11 10 9 8 6 4 4 4
11 10 9 8 7 7 7 8 9 10 11 12 12 12 10 7 7 7 6 6 6 6 7 7 5 5 4 3 4 4 3 3 4 4 3 4 5 5 4 5 7 7 6 6 5 7 9 11 11 13 19 22 24 27 29 30 30 30 29 26 24 25 26 26 26 26 25 25 26 26 23 22 21 19 18 17 14 13 11 10 9 8 5 5 5
11 10 9 7 7 6 6 7 8 8 10 12 12 12 10 9 9 8 7 6 6 6 8 8 7 6 6 5 5 5 3 3 3 3 2 3 4 4 2 1 4 6 6 6 5 6 9 11 11 13 17 21 22 25 28 29 28 29 29 26 24 24 25 26 27 27 26 25 26 26 23 23 22 21 20 18 15 14 13 12 10 9 7 6 6
10 10 8 7 7 6 6 6 6 7 9 10 10 11 10 8 8 8 6 6 6 8 9 10 9 8 8 7 7 5 4 3 2 2 1 2 3 2 2 2 0 3 5 6 5 6 8 10 12 13 16 19 21 24 27 28 27 27 28 26 24 23 24 26 26 26 26 27 27 25 23 23 22 21 21 19 17 15 14 13 12 10 8 7 7
9 10 10 9 7 6 5 5 5 7 9 10 11 12 11 9 8 7 6 7 8 11 11 11 11 10 10 9 8 6 4 4 3 3 3 1 1 1 1 2 2 1 4 6 6 6 8 10 12 14 15 18 21 23 25 27 26 26 26 25 24 23 24 25 26 26 27 28 27 25 24 24 23 22 21 20 18 16 15 14 13 12 10 9 8
11 11 11 11 8 7 6 6 6 8 10 11 11 11 11 9 8 7 7 8 10 11 12 12 11 10 11 9 8 7 5 6 5 4 4 3 2 2 2 1 1 1 2 4 4 4 6 10 13 14 15 18 20 22 24 26 25 25 25 25 24 24 25 25 26 26 27 29 27 26 26 25 24 23 22 21 19 18 17 15 14 13 12 10 9
11 11 11 10 9 8 8 7 7 8 9 10 10 9 9 8 8 10 10 9 10 11 12 13 12 11 12 10 8 7 5 7 8 6 6 5 4 4 4 3 1 1 1 1 3 4 5 10 15 16 15 17 19 21 24 26 26 26 25 25 25 25 24 24 25 25 27 29 28 28 28 26 26 24 23 22 21 20 19 18 16 15 14 12 11
12 11 10 10 10 9 8 7 7 8 8 10 10 10 11 10 10 12 11 9 8 10 11 13 13 11 11 10 9 8 7 8 10 9 9 8 7 7 7 6 3 2 2 0 2 4 4 9 15 16 15 16 18 20 22 25 27 27 26 26 25 24 22 23 23 23 25 27 27 28 28 27 27 26 25 23 22 21 20 19 18 16 15 13 12
13 11 11 11 10 9 9 8 7 7 7 9 10 10 10 10 12 12 12 11 10 11 11 13 12 10 11 13 11 9 8 11 11 10 11 10 9 10 10 9 6 4 3 1 2 3 4 7 13 15 14 15 16 18 21 24 25 26 26 27 25 23 22 22 22 22 23 24 26 28 28 28 28 27 26 24 23 22 21 20 18 17 16 15 14
13 12 12 11 9 9 9 9 8 7 7 8 10 12 12 11 13 12 11 11 11 11 10 11 12 10 11 13 13 11 10 12 11 9 10 11 10 9 9 9 7 6 5 4 4 4 4 6 11 14 13 14 15 16 19 22 23 24 25 26 26 24 22 22 23 24 23 22 25 27 28 28 28 27 26 25 24 23 22 21 19 18 17 16 15
12 11 11 9 8 9 8 8 8 7 8 9 10 12 12 12 13 12 12 12 11 13 11 10 11 10 10 11 13 13 13 13 12 10 10 11 11 9 10 10 6 5 5 6 6 6 6 7 9 12 12 13 13 13 16 18 21 23 25 26 25 24 23 22 23 25 24 22 24 27 29 29 28 27 25 25 24 23 23 22 20 19 18 17 17
10 9 8 6 7 7 7 8 8 9 10 10 11 11 12 13 13 12 12 11 10 13 13 11 11 12 11 12 13 14 14 14 13 13 12 11 11 10 11 11 5 4 5 6 6 6 8 9 10 10 10 11 11 12 13 14 18 21 22 24 24 23 24 23 23 24 24 24 24 25 28 28 28 27 25 25 24 24 23 22 22 21 20 19 18
8 7 6 5 6 7 9 9 9 11 11 11 13 12 12 13 13 13 12 11 12 13 12 12 12 13 13 13 14 14 15 15 15 16 15 12 12 11 12 11 8 6 6 7 7 8 8 10 10 10 8 7 9 11 13 14 16 17 19 22 23 24 24 23 23 23 23 24 24 24 26 27 28 27 26 25 24 24 24 23 22 22 21 20 19
7 6 5 6 7 8 10 11 12 12 12 12 13 13 12 13 13 13 13 13 12 12 12 13 13 14 12 12 13 13 15 17 16 17 16 14 14 13 13 12 10 10 10 9 9 9 10 11 10 9 9 7 7 9 11 13 14 15 17 19 21 23 23 23 23 24 24 24 24 25 25 26 27 27 26 25 25 24 24 23 23 22 22 21 20
7 5 5 6 7 9 11 12 12 11 11 11 11 12 12 13 13 12 13 13 11 11 13 14 14 13 12 12 13 13 16 17 16 16 16 16 16 14 13 13 13 13 12 11 11 12 12 11 10 9 11 11 10 11 10 11 13 15 16 18 20 21 22 22 23 24 24 24 25 25 25 25 26 27 27 26 25 25 24 24 23 23 22 22 21
8 6 5 6 6 8 9 10 10 10 10 10 11 11 12 13 13 12 14 14 12 13 14 13 14 14 13 14 14 13 15 16 15 16 16 17 17 15 15 16 16 14 12 12 14 14 14 13 12 11 12 13 14 14 14 13 13 14 15 15 17 20 22 23 24 25 25 25 25 24 24 24 25 26 27 27 26 26 26 25 24 23 23 22 21
8 7 4 5 5 6 7 7 7 7 7 7 8 9 10 11 11 12 13 14 13 13 14 13 14 15 14 15 15 15 16 16 16 15 14 15 17 16 17 18 16 14 13 12 14 15 16 16 14 13 12 13 13 13 14 14 13 13 14 14 15 18 22 25 26 26 26 26 26 25 25 23 23 24 26 28 28 27 27 26 25 24 24 23 22
6 5 4 3 5 5 7 6 4 3 4 4 4 5 6 9 10 11 11 13 13 12 13 13 15 15 14 15 16 16 16 17 18 16 14 15 17 17 17 16 16 16 14 10 12 14 16 16 16 14 12 12 11 11 12 12 12 13 13 14 15 17 21 24 27 28 27 26 27 27 25 25 25 24 23 26 28 29 28 27 27 26 25 24 24
6 5 4 3 3 4 4 4 2 3 6 8 7 4 2 5 8 9 10 12 12 12 12 12 13 13 14 16 17 17 18 19 20 18 17 16 17 17 16 16 16 17 16 11 11 14 15 16 16 14 14 13 12 11 11 10 12 13 14 15 15 16 19 22 25 28 29 28 27 27 27 28 29 27 24 23 25 28 29 29 28 28 27 27 26
8 5 4 4 2 2 2 2 2 4 6 9 11 9 6 3 4 7 10 12 13 13 13 12 12 12 14 16 17 17 19 21 20 20 19 18 18 18 16 17 17 17 17 16 14 15 15 15 15 15 16 15 14 13 12 11 11 14 16 17 17 16 18 20 22 25 29 30 29 29 30 30 30 31 29 26 25 26 28 29 30 30 29 29 28
8 6 5 5 2 1 1 2 2 5 7 9 11 12 10 7 4 4 7 9 12 14 15 15 13 14 15 16 17 16 18 21 21 20 20 19 20 19 17 18 18 16 17 18 17 15 15 15 15 16 16 16 16 15 14 14 13 14 17 19 21 19 17 19 21 23 26 29 31 32 32 31 31 33 32 29 27 26 27 28 29 30 31 31 30
9 8 7 7 4 2 1 2 3 4 7 9 12 13 12 10 7 5 4 6 9 12 15 16 15 16 16 16 17 17 19 20 21 21 20 19 19 19 18 17 17 16 16 18 17 15 15 14 13 14 15 16 16 16 15 16 16 15 16 19 22 20 18 18 19 21 23 26 29 32 33 33 32 32 32 30 29 28 29 29 29 29 31 32 32
10 10 9 8 6 4 2 2 3 4 6 8 11 14 15 14 11 6 4 5 6 9 12 15 16 16 15 15 16 16 18 18 19 19 18 17 18 18 17 16 17 17 16 15 14 14 15 13 13 14 14 16 17 15 15 15 15 16 17 18 19 21 21 19 18 19 20 23 26 29 32 34 33 31 32 31 30 30 31 31 30 29 30 31 33
13 12 11 9 8 6 4 3 3 4 6 7 9 12 15 16 15 9 5 5 6 7 10 13 14 14 14 15 15 15 16 17 17 17 17 17 17 16 15 15 18 18 17 16 14 15 16 14 15 15 15 16 15 11 11 13 14 16 17 16 17 20 22 20 18 18 19 20 22 25 28 31 31 30 30 31 30 31 32 32 32 31 31 31 31
15 13 13 10 9 9 6 5 4 4 6 7 8 10 13 16 16 11 7 6 5 6 8 10 11 11 12 13 13 13 14 15 15 15 16 15 15 15 14 14 17 18 18 17 16 16 16 15 15 14 14 14 10 9 11 13 15 16 17 18 18 19 21 20 20 21 21 20 19 21 24 27 29 28 27 29 29 30 31 32 33 33 34 33 31
16 16 15 12 11 11 9 6 5 5 6 6 7 8 11 15 15 12 9 6 6 7 7 7 8 9 10 10 11 11 11 11 11 12 13 13 14 14 14 15 16 17 16 15 15 16 16 15 16 17 17 14 12 13 14 15 15 16 16 17 17 16 16 15 18 23 23 20 19 20 21 22 27 29 28 28 28 29 30 31 32 33 33 33 32
20 19 18 15 13 12 11 9 7 7 8 7 7 7 10 14 15 12 8 6 6 8 8 8 8 8 8 8 8 8 8 8 8 9 9 10 11 12 13 14 14 15 15 14 13 14 15 15 16 19 19 17 17 16 16 17 16 15 15 14 13 9 8 8 11 21 25 23 20 20 21 21 25 29 28 28 28 28 29 29 30 31 32 32 32
23 23 22 18 16 14 13 12 9 9 11 9 7 7 10 13 14 11 6 4 5 7 7 7 6 6 6 6 6 6 6 6 6 6 7 7 8 8 9 10 11 12 13 13 13 13 13 13 15 15 15 15 15 16 17 16 15 15 14 13 12 10 7 8 8 12 19 23 23 21 22 22 25 28 28 27 28 28 28 29 29 29 30 31 31
25 25 24 22 20 16 15 14 11 11 13 12 8 8 10 12 12 9 4 2 3 5 5 4 4 4 4 4 4 4 4 4 4 4 5 5 6 6 6 7 8 8 9 10 11 12 11 12 13 12 11 11 13 14 14 14 15 15 14 13 14 13 11 10 9 11 13 15 19 22 23 23 25 27 27 27 27 28 28 28 28 30 31 31 29
28 26 26 25 23 20 17 16 14 13 15 13 10 9 10 11 11 8 4 2 1 3 3 3 3 4 4 4 3 3 4 4 4 4 4 4 4 4 4 5 5 6 6 7 8 8 8 9 9 9 9 8 9 10 10 11 13 13 13 13 13 14 13 12 12 12 12 10 12 16 21 25 26 26 26 28 28 26 27 28 29 29 29 30 28
30 28 27 27 26 23 19 18 17 16 17 16 12 10 9 9 9 8 5 3 2 2 4 4 5 5 5 5 5 5 5 5 5 5 4 4 4 3 3 3 4 4 5 5 5 6 6 6 6 6 6 6 7 7 7 9 9 9 11 11 12 12 13 15 14 12 12 12 12 12 15 20 25 26 26 27 28 27 27 28 28 25 22 24 26
33 31 30 28 28 27 23 21 19 18 19 18 13 10 8 8 8 7 6 4 4 4 5 6 6 7 7 7 7 7 7 7 6 6 5 5 4 4 4 3 4 3 4 4 5 5 4 4 4 4 4 5 6 7 7 8 8 8 9 9 9 9 11 13 12 12 13 13 14 14 13 14 18 24 26 26 27 29 29 26 25 23 20 21 24
33 33 32 30 30 29 26 24 21 19 19 18 13 10 8 8 6 5 5 5 5 5 6 6 7 7 7 7 7 6 6 5 4 5 5 5 5 5 5 5 4 4 4 4 5 5 4 3 3 2 2 3 4 5 6 7 9 10 10 10 10 10 10 11 10 10 12 12 13 15 15 14 14 15 20 23 27 29 29 26 24 24 23 24 25
32 33 33 33 32 30 27 25 22 20 18 15 12 10 9 8 6 4 4 4 5 6 6 6 6 6 5 4 4 2 1 1 1 1 2 3 4 5 5 6 5 5 5 5 5 6 5 4 4 3 2 2 2 3 4 6 7 9 10 12 13 13 13 14 12 11 12 14 16 16 16 17 15 12 12 15 21 26 29 29 27 26 25 26 27
Wind_Direction
215 215 211 211 206 197 190 188 186 179 177 170 162 155 146 142 138 142 144 126 123 114 98 100 106 112 106 109 102 85 78 58 25 1 346 332 312 184 143 141 158 173 172 168 166 165 164 163 165 167 167 166 165 163 163 162 160 158 158 158 156 155 154 151 144 139 135 129 124 118 112 104 95 88 82 76 69 63 59 56 55 52 50 50 51
211 211 210 208 205 195 190 189 188 182 176 171 163 157 153 149 147 147 149 129 118 113 92 81 87 94 96 101 89 81 82 64 33 12 336 312 268 232 184 158 157 171 176 174 172 170 169 168 167 169 170 169 168 166 166 165 163 162 161 161 160 158 157 154 148 143 139 134 129 122 115 106 97 89 81 74 68 62 57 53 52 51 48 48 49
208 208 208 206 204 194 192 189 188 185 177 172 166 164 162 154 153 148 142 127 111 104 86 74 76 80 87 90 83 81 84 76 52 33 5 335 271 242 219 186 166 169 177 179 178 175 172 171 170 172 173 172 171 170 169 168 166 166 165 165 163 162 161 157 152 147 144 140 135 128 120 110 100 91 82 73 67 61 56 52 50 49 47 47 47
204 203 206 203 203 197 193 191 190 187 178 175 174 172 169 160 153 145 136 122 105 99 91 82 76 79 85 85 80 80 80 77 63 47 37 28 309 244 214 196 179 170 175 180 181 180 175 173 174 174 176 176 174 173 172 171 170 169 168 168 166 165 164 160 155 152 149 146 141 135 126 116 106 95 84 75 66 59 55 52 49 47 46 45 45
198 197 202 202 203 200 196 193 193 188 181 180 181 178 174 162 149 140 131 120 107 100 94 85 79 79 82 81 80 81 79 75 65 55 47 47 43 148 176 185 185 176 174 181 183 183 179 174 177 177 178 179 178 177 175 174 174 173 171 171 170 169 166 162 159 156 154 150 146 141 132 122 113 101 89 77 65 57 54 52 48 45 43 43 43
194 195 201 206 205 203 199 195 195 190 185 189 188 182 175 160 143 133 125 119 111 103 94 84 80 81 81 83 86 88 85 80 72 67 64 59 62 79 117 159 179 179 174 180 184 186 183 178 179 180 180 181 181 180 179 177 177 176 174 174 173 173 169 165 162 159 156 153 149 145 136 127 119 106 92 79 67 57 53 51 48 43 41 41 41
197 200 205 210 208 206 203 198 197 192 191 196 193 183 177 158 138 127 123 120 115 108 99 92 88 88 89 91 95 95 90 88 80 76 82 73 74 85 100 130 162 178 176 176 184 188 187 183 181 183 182 182 183 183 182 181 180 180 178 177 177 176 172 169 166 162 159 157 153 147 141 135 127 114 100 84 71 61 54 51 48 43 40 39 39
203 203 205 210 210 210 206 202 199 195 196 198 193 184 178 153 131 124 124 122 123 121 112 107 103 104 107 106 104 100 95 94 85 78 90 84 81 87 99 114 137 166 178 176 180 187 190 188 185 185 186 184 184 185 186 184 183 182 182 181 180 180 178 174 169 166 163 161 159 153 148 144 135 124 110 92 75 64 57 50 47 42 38 37 37
204 201 201 205 212 215 209 205 203 200 200 196 189 185 175 144 130 130 131 132 136 137 130 124 120 123 125 120 111 104 101 96 89 78 90 88 82 82 98 113 123 144 170 179 179 186 191 192 190 189 188 187 185 187 189 187 185 185 185 186 184 183 183 180 174 171 168 167 168 162 157 154 147 136 121 99 77 63 58 51 46 41 36 35 35
204 202 198 202 209 216 213 206 205 205 202 192 181 180 171 145 139 140 138 140 145 146 145 140 138 138 134 129 121 116 107 98 96 92 85 85 84 76 90 114 123 134 154 175 182 186 192 195 195 192 191 190 188 188 191 190 189 187 188 189 189 187 188 187 181 177 175 176 177 170 165 163 155 146 135 112 80 61 57 52 45 39 33 32 33
210 208 199 204 211 217 213 205 204 203 199 185 171 168 160 148 150 148 140 142 148 149 154 152 149 147 143 141 141 142 129 122 97 93 106 104 96 88 91 111 127 138 150 170 187 192 196 199 200 197 194 193 191 190 192 192 192 190 190 192 192 191 192 193 190 185 183 186 182 173 175 171 162 161 152 129 93 65 55 52 46 38 31 29 31
215 209 197 205 215 218 212 204 202 198 192 181 167 160 155 154 154 154 146 142 150 156 164 161 157 156 151 153 158 159 154 167 148 89 128 182 217 134 119 123 139 153 163 174 191 200 202 202 203 201 198 196 194 192 193 194 194 193 193 194 194 194 195 197 198 194 192 193 184 182 188 176 168 174 166 147 114 77 56 50 44 36 28 25 28
211 203 200 206 211 216 212 205 201 199 192 185 173 165 166 165 161 165 158 147 159 173 178 172 168 164 160 166 167 165 174 215 212 197 210 209 231 205 163 173 168 168 178 186 194 202 206 203 202 203 201 200 198 195 194 196 196 196 196 196 197 198 198 199 203 203 202 198 191 196 195 178 178 181 176 175 163 148 59 44 38 31 22 19 22
211 204 204 207 209 213 209 204 200 201 196 190 183 180 180 175 178 178 171 162 171 186 192 189 180 169 167 174 174 179 192 219 228 220 222 213 224 231 211 213 217 210 199 195 196 201 206 204 201 201 202 202 201 199 197 197 198 199 198 198 199 201 201 201 204 208 209 206 203 206 196 183 192 191 191 201 208 225 241 251 347 18 12 12 15
211 208 208 211 212 209 203 203 203 202 202 201 191 192 192 187 192 185 180 179 185 197 201 205 190 175 173 182 187 194 206 222 230 226 227 223 229 241 237 234 237 239 223 206 197 198 204 203 200 200 201 202 203 203 200 199 199 201 201 201 202 203 204 204 205 209 212 213 214 216 204 195 206 205 208 212 218 229 235 241 250 324 352 1 7
207 208 211 214 211 204 204 210 209 204 205 209 204 202 201 196 199 190 196 205 211 209 206 214 200 181 189 204 211 215 224 226 226 223 232 233 237 245 247 246 234 229 220 215 202 196 203 204 200 199 201 201 203 205 204 201 200 202 203 203 205 206 207 207 209 210 212 216 220 224 215 211 217 217 221 224 227 232 236 241 245 269 323 346 355
200 206 209 213 210 204 209 214 211 207 208 211 214 217 212 204 204 207 223 233 233 223 213 219 221 206 212 230 234 220 208 210 227 238 238 231 244 257 262 258 236 223 209 213 215 202 203 203 200 199 200 201 202 205 206 204 202 202 204 205 206 209 210 211 212 213 214 216 222 227 222 222 228 227 231 234 235 238 240 241 244 256 291 326 342
193 202 204 209 211 206 211 214 208 209 214 218 221 223 223 215 215 223 232 237 237 234 228 228 241 240 234 245 239 220 210 206 218 233 246 246 259 269 274 271 246 229 212 209 220 212 207 202 202 201 199 201 203 204 206 207 205 204 204 206 207 210 213 214 215 216 217 217 221 226 224 227 233 234 238 240 241 243 244 243 243 252 272 304 325
186 196 200 204 208 209 211 213 212 211 212 218 223 225 224 219 225 229 229 236 237 240 247 243 246 261 262 255 255 253 228 217 220 216 232 258 274 280 281 272 250 235 219 212 211 211 213 206 206 207 200 199 203 204 205 207 208 207 206 206 207 210 213 215 216 218 219 220 223 225 225 230 234 237 241 242 243 243 245 244 243 251 264 287 309
184 191 204 208 207 212 219 220 221 219 212 212 218 221 217 211 222 228 225 236 245 245 254 255 248 262 269 253 253 256 230 219 228 214 214 269 297 313 330 300 242 237 228 221 206 200 211 211 209 211 204 200 201 203 205 207 209 210 208 207 208 211 214 215 216 218 219 222 224 224 226 230 234 237 240 241 241 242 244 244 244 250 264 282 299
189 188 200 214 217 218 224 230 231 234 233 229 228 226 223 221 228 237 240 237 243 245 246 255 252 248 248 244 253 260 250 242 233 230 234 314 324 344 15 39 160 221 226 226 208 192 203 213 214 212 208 202 200 200 203 207 210 212 211 209 209 211 215 217 218 220 221 223 225 225 226 229 232 236 239 239 238 240 242 244 245 250 262 277 291
193 189 194 202 213 223 225 232 234 239 241 238 233 229 230 237 241 246 252 240 241 247 244 247 248 250 244 233 246 254 253 260 257 250 247 274 297 304 15 24 33 187 223 231 218 192 197 207 213 215 211 205 201 198 201 206 210 213 212 211 210 211 215 217 218 220 222 224 225 225 226 228 230 233 236 237 236 237 240 243 246 251 259 270 282
187 186 189 190 194 208 222 236 245 250 250 247 240 231 229 235 246 250 248 245 250 257 257 252 242 250 257 244 245 251 255 269 270 253 249 248 247 253 248 279 351 357 245 254 249 221 206 203 204 213 215 210 205 199 200 205 209 213 214 212 211 212 215 217 218 220 223 225 225 224 226 227 229 231 233 235 234 235 238 241 244 250 256 264 274
183 182 184 186 189 200 210 227 247 260 269 277 281 275 269 263 257 256 250 243 252 261 264 265 254 242 247 241 236 246 258 271 271 252 242 244 244 243 240 255 282 258 289 296 265 259 232 205 198 204 214 215 211 204 201 203 207 211 214 214 213 214 216 219 221 220 224 227 225 225 226 226 229 230 231 232 233 234 236 239 242 247 253 259 266
187 188 188 189 192 201 209 219 239 257 272 283 290 291 291 288 275 267 259 249 255 263 264 266 265 253 253 248 227 222 225 242 258 260 253 241 234 238 235 237 227 220 287 312 209 249 244 206 195 198 207 213 214 211 207 205 206 208 212 216 217 216 218 222 223 221 224 228 226 226 226 225 228 229 230 231 231 233 236 238 241 244 248 254 261
192 194 197 200 198 204 217 226 233 249 268 277 281 283 285 286 280 266 253 251 247 247 252 259 258 254 263 265 251 235 225 231 236 243 259 256 236 232 230 227 212 197 231 226 182 224 239 201 192 195 203 209 213 216 215 212 210 210 211 215 215 215 219 223 223 222 224 227 225 225 226 224 225 227 229 230 231 232 235 237 239 242 245 251 257
193 195 203 209 210 216 225 234 238 242 258 271 279 285 287 286 284 278 270 276 273 259 255 261 263 255 251 258 264 260 246 244 241 235 252 263 257 250 243 229 210 198 200 191 189 206 218 205 196 196 203 210 215 220 219 215 213 212 213 215 215 213 218 224 223 221 223 228 226 224 226 225 224 225 228 228 230 232 234 237 238 240 244 248 253
193 201 211 214 216 222 226 238 249 252 260 267 274 280 285 285 285 288 287 290 290 281 273 265 269 266 254 254 262 264 258 254 255 258 257 258 263 267 263 248 216 193 194 187 191 201 208 214 210 204 207 213 219 224 222 218 216 215 214 216 218 215 219 225 225 222 222 227 229 225 224 226 225 225 227 228 229 231 233 236 237 238 241 245 249
199 207 213 212 216 232 245 252 261 266 267 268 270 274 277 280 281 281 282 281 274 272 275 272 267 265 263 260 255 256 259 256 250 254 259 262 266 267 269 271 259 205 202 203 200 205 211 217 219 213 211 213 218 224 222 219 220 220 217 216 218 220 223 226 225 224 225 229 233 229 224 225 227 225 225 227 228 230 232 234 235 236 238 241 244
201 206 214 228 241 262 272 271 274 275 276 274 272 272 270 271 274 275 275 271 263 263 269 270 266 265 265 262 256 253 256 258 254 251 256 264 267 261 259 268 269 230 214 221 217 213 217 221 221 215 212 212 214 216 215 214 219 224 224 221 219 222 227 228 227 226 228 232 234 233 228 225 226 225 224 226 228 230 231 233 234 235 236 237 239
203 214 233 256 272 283 288 287 286 284 282 279 275 274 267 261 262 267 266 261 259 258 259 259 257 256 255 258 260 259 260 260 259 258 259 261 260 255 250 252 252 232 219 220 222 220 220 224 224 219 216 220 225 221 213 206 210 219 223 225 225 224 227 231 232 231 230 234 234 235 234 228 226 226 225 225 228 229 231 232 234 235 236 236 236
207 226 256 272 286 290 291 290 287 286 285 279 275 272 266 263 260 257 257 258 257 252 252 256 256 253 248 251 255 259 265 265 263 262 259 258 258 255 252 250 247 239 230 221 222 224 223 224 223 225 224 225 234 236 232 212 204 212 218 223 228 228 229 231 234 235 234 236 236 237 238 233 229 229 228 227 228 229 230 232 233 236 237 237 236
215 233 266 278 289 289 286 287 287 289 289 281 274 267 260 261 261 256 253 253 248 243 248 255 258 260 253 249 249 250 259 265 264 259 253 254 257 254 248 246 246 248 247 234 229 228 228 233 234 235 234 235 236 235 241 230 208 209 217 223 229 229 230 231 232 236 236 235 236 236 238 237 234 234 233 231 231 230 230 231 231 234 236 237 237
224 233 256 276 287 288 283 286 289 293 296 286 277 266 255 251 252 254 255 253 246 241 247 252 254 258 256 253 249 245 249 255 256 257 259 259 258 255 247 245 248 253 257 243 235 234 234 240 245 244 241 241 238 227 229 228 214 210 215 221 228 231 232 232 232 234 236 236 236 235 235 237 239 239 238 235 234 234 232 231 232 232 234 236 237
221 224 229 261 283 283 278 278 288 315 345 344 314 278 252 243 244 245 248 248 247 245 247 250 252 255 255 258 256 250 252 254 253 255 256 254 255 258 255 254 253 253 257 246 237 241 241 243 248 248 242 237 235 226 225 227 223 220 220 221 226 231 232 233 234 234 235 237 236 235 234 235 237 239 241 239 236 236 235 233 233 233 234 235 235
209 207 217 251 282 283 276 275 303 358 17 20 15 356 288 240 235 234 238 241 240 242 246 251 254 254 253 257 259 255 256 259 258 256 254 256 259 262 263 263 259 256 260 255 239 241 242 245 247 245 240 236 233 232 236 238 234 234 236 232 228 228 227 229 233 234 235 237 236 236 234 233 233 234 238 241 240 238 237 235 235 234 234 234 235
205 202 220 250 283 289 286 289 333 3 10 15 18 14 3 314 244 228 231 234 233 232 238 246 249 249 248 251 256 257 256 260 263 260 261 268 266 262 264 266 265 262 262 261 249 242 242 245 243 234 234 241 241 239 244 245 239 236 239 239 234 227 221 223 229 232 236 237 237 236 237 236 234 233 235 238 242 242 240 238 237 236 235 236 236
202 206 219 236 251 260 293 298 328 354 357 3 7 9 8 358 320 260 236 235 234 230 231 237 241 245 246 247 253 258 257 257 261 262 263 270 270 266 262 262 265 263 261 263 256 246 241 239 237 232 234 245 250 247 249 251 246 237 235 238 237 229 219 220 225 230 233 237 237 238 240 241 238 235 235 237 240 243 244 242 241 239 238 238 238
205 208 217 227 235 210 188 270 295 330 343 351 353 356 358 357 343 304 258 240 237 233 234 235 236 240 245 248 251 255 257 256 258 261 262 265 270 272 267 260 263 265 265 262 254 248 243 236 238 239 237 243 249 249 249 252 253 251 246 243 241 233 220 215 223 229 231 233 236 238 239 241 241 237 236 237 238 241 245 246 245 243 242 241 240
214 211 215 222 233 227 198 234 265 299 319 335 343 345 346 348 347 321 274 254 245 236 235 235 234 236 242 249 251 252 254 256 257 260 261 259 260 269 272 264 262 266 269 264 253 247 247 250 253 247 241 243 245 247 252 259 263 265 263 258 254 245 228 217 218 224 229 230 232 236 239 241 243 240 237 238 240 241 244 246 248 248 248 246 245
222 218 220 219 233 238 220 219 239 279 301 320 335 343 344 344 343 331 289 267 258 240 234 235 233 234 240 246 251 251 251 255 257 258 260 261 260 265 270 265 261 265 267 268 264 252 244 248 249 244 243 244 245 248 262 274 276 278 278 277 273 259 243 233 227 223 223 227 228 232 238 240 241 241 239 239 241 242 244 246 248 250 251 252 251
232 234 233 223 232 236 224 216 225 262 285 306 327 343 346 341 340 336 309 284 274 255 240 239 238 237 241 246 252 255 254 257 260 259 260 261 264 264 265 263 261 264 265 266 268 261 251 247 247 247 245 245 255 274 281 286 289 291 291 289 285 273 260 252 241 229 219 219 225 229 234 237 236 238 238 239 242 243 245 247 248 249 251 253 255
243 246 244 236 238 238 228 217 218 246 267 290 315 333 340 336 336 333 308 281 277 276 262 251 245 241 244 246 251 254 256 260 261 261 261 260 261 262 265 265 265 267 268 268 267 266 265 261 260 262 262 266 278 282 284 289 293 297 296 291 286 277 275 269 243 230 221 217 224 227 230 231 229 231 234 238 241 242 244 248 249 249 251 253 255
245 247 249 248 246 242 235 225 222 242 257 274 300 321 332 332 331 328 304 272 273 276 268 258 247 242 243 242 245 248 251 257 260 262 263 263 262 261 264 266 266 267 270 271 269 271 273 272 270 269 272 278 279 279 284 288 291 297 298 292 281 271 290 298 249 230 224 222 226 227 228 228 225 227 231 234 237 239 242 245 248 250 250 251 254
244 246 251 253 251 246 240 234 230 242 253 265 289 311 326 327 328 329 307 269 281 277 265 255 244 240 238 235 238 242 245 251 255 261 263 265 265 263 262 262 262 262 264 267 268 271 272 273 276 275 274 274 273 277 283 284 288 291 291 284 273 267 277 294 282 252 239 234 236 233 230 230 227 228 231 234 234 236 240 241 245 250 251 251 252
242 244 249 251 249 244 240 239 237 244 253 260 277 305 322 323 326 334 320 272 293 289 276 256 235 225 219 223 232 238 252 259 260 265 267 269 266 260 258 260 261 260 260 262 265 268 268 270 275 277 278 274 272 276 280 284 286 284 281 275 268 266 265 270 277 273 263 255 249 240 232 230 231 232 233 234 234 235 240 240 240 245 247 246 248
239 241 245 248 247 243 240 242 242 247 256 260 271 297 316 317 323 334 334 336 330 295 283 263 239 229 227 236 249 256 266 271 275 276 276 281 277 266 256 256 261 260 260 262 263 267 269 270 272 275 279 278 276 275 271 272 275 275 272 266 261 261 259 260 263 262 265 272 264 248 237 232 234 238 237 235 233 234 240 241 238 239 237 236 241
235 238 241 245 246 245 245 246 246 250 257 261 268 287 306 311 320 331 329 330 332 296 278 266 253 248 252 261 269 275 277 273 273 273 274 281 285 289 283 275 273 269 267 265 265 269 269 269 271 272 273 271 269 264 255 255 259 267 265 256 255 259 258 259 260 258 260 264 263 256 250 244 240 239 240 238 232 229 233 236 237 240 235 230 236
232 234 237 240 242 244 245 245 247 251 256 264 267 271 290 301 309 325 325 316 311 292 274 263 258 258 264 273 277 280 280 275 271 266 266 269 273 283 288 291 291 286 281 275 273 277 276 274 273 269 264 258 253 247 244 246 241 243 249 247 251 257 258 261 259 253 256 258 257 255 258 264 256 241 236 236 229 226 229 232 235 242 240 232 234
233 232 234 235 238 242 243 244 248 252 257 265 262 248 262 282 292 315 325 319 310 299 282 264 260 262 267 273 276 278 276 273 270 265 264 265 266 271 274 278 281 280 282 279 277 280 281 282 281 276 267 248 239 233 230 232 231 232 233 234 238 242 244 250 251 246 248 250 252 254 254 262 274 260 244 237 229 227 231 235 238 242 241 236 236
237 235 233 232 233 237 239 242 245 249 253 253 241 229 241 260 269 296 321 325 311 302 293 271 257 256 258 259 259 256 251 241 276 279 274 270 268 267 268 269 272 272 272 272 275 280 282 284 283 281 272 251 236 229 221 220 228 232 234 234 236 239 240 243 248 247 246 248 250 255 256 256 268 281 278 259 239 232 234 238 243 243 241 238 240
Height
3144 3145 3146 3146 3147 3147 3148 3148 3148 3148 3148 3149 3149 3148 3149 3149 3149 3149 3149 3150 3150 3150 3151 3150 3150 3151 3151 3151 3152 3152 3152 3152 3152 3152 3153 3153 3153 3154 3155 3156 3157 3158 3159 3160 3161 3162 3163 3164 3164 3165 3167 3168 3169 3170 3171 3172 3173 3173 3174 3175 3176 3177 3177 3178 3179 3179 3180 3180 3180 3181 3181 3181 3181 3181 3181 3181 3181 3181 3180 3180 3179 3178 3177 3177 3176
3143 3144 3144 3146 3146 3147 3147 3148 3148 3148 3148 3149 3149 3149 3149 3149 3149 3149 3149 3150 3150 3151 3151 3151 3151 3151 3152 3152 3152 3152 3152 3153 3153 3153 3153 3153 3153 3154 3154 3155 3156 3158 3159 3160 3161 3162 3163 3164 3165 3166 3167 3168 3169 3170 3172 3172 3173 3174 3175 3176 3177 3177 3178 3179 3179 3180 3181 3181 3181 3182 3182 3182 3182 3182 3182 3182 3182 3182 3181 3181 3180 3179 3179 3178 3177
3142 3143 3144 3145 3146 3147 3147 3148 3148 3148 3148 3148 3149 3149 3149 3149 3149 3149 3149 3150 3151 3151 3151 3152 3152 3152 3152 3153 3153 3153 3153 3153 3153 3153 3152 3152 3152 3153 3154 3155 3156 3157 3158 3159 3160 3162 3163 3164 3166 3167 3167 3168 3170 3171 3172 3173 3174 3174 3175 3176 3177 3178 3179 3179 3180 3181 3181 3182 3182 3183 3183 3183 3183 3183 3183 3183 3183 3183 3182 3181 3181 3180 3180 3179 3178
3140 3141 3143 3144 3145 3146 3147 3147 3147 3148 3148 3148 3149 3148 3149 3148 3148 3149 3149 3150 3151 3151 3152 3152 3152 3152 3153 3153 3153 3153 3153 3153 3153 3153 3152 3152 3152 3152 3153 3154 3155 3156 3158 3159 3160 3161 3162 3164 3165 3167 3168 3169 3170 3171 3172 3173 3174 3175 3176 3177 3178 3179 3179 3180 3181 3181 3182 3182 3183 3183 3184 3184 3184 3184 3184 3184 3184 3183 3183 3182 3182 3182 3181 3180 3180
3139 3140 3143 3144 3145 3145 3146 3147 3147 3148 3148 3148 3148 3148 3149 3148 3148 3149 3149 3150 3151 3151 3152 3152 3153 3153 3153 3153 3153 3153 3153 3153 3153 3153 3152 3152 3152 3152 3152 3153 3155 3156 3157 3158 3159 3160 3162 3163 3165 3166 3167 3169 3170 3171 3172 3173 3174 3175 3176 3177 3178 3179 3180 3181 3181 3182 3182 3183 3183 3184 3184 3184 3185 3185 3185 3185 3185 3184 3184 3184 3183 3182 3182 3181 3181
3139 3141 3143 3144 3144 3145 3145 3146 3147 3147 3148 3148 3148 3149 3149 3149 3149 3149 3150 3150 3151 3151 3152 3152 3153 3153 3153 3153 3153 3153 3153 3153 3153 3153 3153 3153 3152 3152 3152 3152 3154 3156 3157 3158 3159 3160 3161 3162 3164 3165 3167 3168 3170 3171 3173 3174 3175 3176 3176 3177 3178 3179 3180 3181 3181 3182 3183 3183 3184 3184 3184 3185 3185 3185 3186 3186 3186 3185 3185 3185 3184 3183 3183 3182 3182
3140 3142 3143 3143 3144 3144 3145 3145 3146 3147 3148 3148 3148 3149 3149 3149 3149 3149 3150 3151 3151 3151 3152 3152 3153 3153 3153 3153 3153 3154 3154 3154 3153 3153 3153 3153 3153 3152 3152 3152 3153 3155 3157 3158 3159 3160 3161 3162 3163 3165 3166 3167 3169 3171 3173 3174 3175 3176 3177 3178 3179 3180 3181 3181 3182 3182 3183 3184 3184 3184 3185 3185 3186 3186 3186 3186 3186 3186 3186 3185 3185 3184 3184 3183 3183
3141 3142 3142 3143 3143 3144 3145 3145 3146 3147 3147 3148 3148 3149 3149 3150 3150 3150 3150 3150 3151 3151 3152 3152 3152 3153 3153 3153 3154 3154 3154 3154 3154 3154 3154 3153 3153 3153 3153 3153 3153 3155 3156 3157 3158 3159 3160 3161 3163 3164 3165 3167 3168 3170 3172 3173 3175 3176 3177 3178 3179 3180 3181 3181 3182 3183 3183 3184 3184 3184 3185 3186 3186 3186 3187 3187 3187 3187 3186 3186 3186 3185 3185 3184 3183
3140 3141 3141 3142 3143 3143 3144 3145 3145 3146 3147 3147 3148 3149 3149 3150 3150 3150 3150 3150 3151 3151 3151 3152 3152 3152 3153 3154 3154 3154 3154 3154 3154 3154 3153 3154 3154 3154 3154 3153 3154 3154 3156 3157 3158 3159 3159 3161 3162 3163 3164 3166 3168 3169 3171 3172 3174 3175 3177 3178 3179 3180 3181 3182 3182 3183 3184 3184 3184 3184 3185 3186 3186 3187 3187 3187 3187 3187 3187 3187 3186 3186 3185 3185 3184
3139 3140 3141 3142 3142 3143 3144 3144 3145 3146 3147 3147 3148 3149 3149 3150 3150 3150 3150 3150 3151 3151 3151 3151 3152 3152 3153 3153 3154 3154 3154 3154 3154 3153 3153 3153 3154 3154 3154 3154 3154 3154 3155 3156 3157 3158 3159 3160 3161 3162 3164 3165 3167 3168 3169 3171 3173 3175 3176 3178 3179 3180 3181 3182 3183 3183 3184 3184 3184 3185 3185 3186 3187 3187 3188 3188 3188 3188 3188 3187 3187 3186 3186 3185 3185
3137 3139 3141 3141 3142 3142 3143 3144 3145 3146 3146 3147 3148 3148 3149 3150 3150 3150 3150 3150 3151 3151 3151 3151 3151 3152 3152 3153 3153 3154 3154 3154 3153 3153 3153 3153 3153 3154 3154 3154 3154 3155 3155 3156 3156 3157 3158 3159 3160 3162 3163 3164 3165 3167 3168 3170 3172 3174 3176 3177 3179 3180 3181 3182 3183 3183 3184 3184 3184 3186 3186 3186 3187 3188 3188 3188 3188 3188 3188 3188 3187 3187 3186 3186 3186
3136 3138 3140 3140 3141 3142 3143 3144 3144 3145 3146 3146 3147 3148 3149 3149 3150 3150 3150 3150 3151 3151 3151 3151 3151 3151 3152 3152 3153 3153 3153 3153 3153 3153 3152 3152 3152 3153 3154 3154 3155 3155 3155 3155 3156 3156 3157 3158 3159 3160 3162 3163 3164 3166 3168 3169 3171 3173 3175 3177 3179 3180 3181 3182 3183 3184 3184 3184 3185 3186 3185 3186 3187 3188 3188 3189 3189 3189 3188 3188 3188 3187 3187 3187 3186
3136 3137 3138 3139 3140 3141 3142 3143 3144 3144 3145 3146 3147 3148 3148 3149 3149 3149 3149 3150 3150 3150 3151 3151 3151 3151 3151 3152 3153 3153 3153 3153 3153 3152 3152 3151 3151 3152 3153 3154 3154 3154 3155 3155 3155 3155 3156 3157 3158 3159 3161 3162 3164 3165 3167 3169 3170 3173 3174 3176 3178 3179 3180 3182 3183 3184 3184 3185 3186 3186 3185 3187 3187 3188 3189 3189 3189 3189 3189 3188 3188 3188 3187 3187 3187
3135 3136 3138 3138 3139 3141 3142 3143 3143 3144 3145 3146 3146 3147 3148 3148 3148 3149 3149 3149 3150 3150 3150 3150 3150 3150 3151 3151 3152 3152 3152 3152 3152 3152 3151 3151 3151 3151 3152 3153 3153 3154 3154 3154 3154 3154 3155 3156 3157 3158 3159 3161 3163 3164 3166 3167 3169 3172 3174 3176 3177 3178 3180 3181 3182 3183 3184 3185 3186 3185 3186 3188 3188 3188 3189 3189 3189 3189 3189 3189 3188 3188 3188 3188 3187
3134 3136 3137 3138 3139 3140 3141 3142 3142 3143 3144 3145 3145 3146 3147 3148 3148 3148 3149 3149 3149 3149 3150 3150 3150 3150 3150 3151 3151 3152 3152 3151 3151 3151 3151 3151 3150 3150 3151 3152 3152 3153 3153 3153 3153 3153 3154 3155 3156 3157 3158 3160 3162 3164 3165 3166 3168 3171 3173 3175 3176 3178 3179 3180 3181 3182 3184 3185 3186 3186 3187 3188 3188 3189 3189 3189 3189 3189 3189 3189 3189 3189 3188 3188 3188
3134 3135 3136 3137 3139 3140 3140 3141 3142 3143 3144 3144 3145 3146 3146 3147 3148 3148 3148 3148 3148 3149 3149 3150 3150 3150 3150 3150 3151 3151 3151 3151 3151 3150 3150 3150 3150 3150 3150 3151 3151 3152 3152 3152 3152 3152 3153 3154 3154 3156 3157 3158 3160 3162 3164 3165 3167 3169 3171 3174 3175 3177 3179 3180 3181 3182 3183 3184 3185 3186 3187 3188 3188 3189 3189 3189 3189 3189 3189 3189 3189 3189 3189 3189 3188
3134 3134 3135 3137 3138 3139 3139 3140 3142 3143 3143 3144 3144 3145 3145 3146 3147 3148 3148 3148 3148 3148 3148 3149 3150 3150 3149 3149 3150 3151 3150 3150 3150 3150 3150 3150 3149 3149 3149 3150 3150 3151 3151 3151 3151 3152 3152 3153 3153 3154 3156 3157 3159 3161 3163 3164 3166 3168 3170 3172 3174 3176 3178 3179 3180 3181 3182 3184 3185 3185 3186 3188 3188 3188 3188 3188 3189 3189 3189 3189 3189 3189 3189 3189 3189
3135 3135 3135 3136 3137 3138 3139 3140 3141 3142 3143 3143 3144 3145 3145 3146 3146 3147 3147 3147 3148 3148 3148 3148 3149 3149 3149 3149 3150 3150 3150 3150 3150 3149 3149 3149 3149 3149 3149 3149 3150 3150 3150 3151 3151 3151 3152 3152 3152 3153 3154 3156 3157 3159 3162 3164 3165 3167 3169 3171 3173 3176 3177 3178 3180 3181 3182 3183 3184 3183 3185 3187 3187 3188 3188 3188 3189 3189 3189 3189 3189 3189 3189 3189 3189
3135 3135 3135 3136 3137 3137 3138 3139 3140 3142 3144 3143 3144 3144 3144 3145 3146 3146 3146 3147 3147 3147 3147 3147 3148 3148 3149 3149 3149 3150 3150 3149 3149 3149 3149 3149 3149 3149 3149 3148 3149 3149 3150 3150 3150 3151 3152 3152 3152 3153 3153 3155 3156 3159 3161 3163 3165 3166 3168 3170 3172 3174 3176 3177 3178 3179 3181 3182 3182 3183 3185 3186 3186 3187 3187 3188 3188 3188 3188 3189 3189 3189 3190 3190 3190
3136 3135 3135 3135 3136 3137 3137 3138 3139 3141 3142 3143 3143 3143 3144 3146 3146 3145 3146 3146 3147 3146 3146 3146 3147 3147 3148 3148 3149 3149 3149 3149 3149 3149 3149 3148 3148 3148 3148 3148 3148 3149 3149 3150 3150 3150 3151 3152 3152 3153 3153 3154 3155 3158 3160 3162 3164 3166 3167 3169 3171 3173 3175 3176 3177 3178 3179 3180 3180 3182 3184 3185 3185 3186 3187 3187 3188 3188 3188 3188 3189 3189 3189 3190 3190
3135 3136 3136 3135 3136 3137 3137 3138 3139 3139 3139 3140 3141 3141 3144 3145 3144 3144 3145 3146 3146 3146 3146 3146 3146 3147 3147 3147 3147 3148 3148 3148 3148 3148 3148 3148 3148 3147 3147 3147 3147 3148 3149 3149 3149 3149 3150 3151 3152 3153 3153 3153 3154 3156 3159 3162 3164 3166 3167 3169 3170 3172 3173 3174 3176 3177 3178 3178 3179 3182 3183 3183 3184 3185 3186 3187 3187 3188 3188 3188 3189 3189 3189 3190 3189
3135 3136 3136 3136 3136 3137 3137 3137 3138 3139 3139 3140 3141 3142 3144 3144 3143 3144 3144 3145 3144 3144 3145 3145 3145 3145 3145 3146 3147 3147 3147 3147 3148 3148 3148 3147 3147 3147 3146 3146 3147 3147 3148 3148 3149 3149 3149 3150 3152 3152 3153 3153 3154 3155 3157 3161 3163 3165 3167 3168 3169 3171 3172 3173 3175 3175 3176 3176 3178 3180 3181 3182 3183 3184 3185 3186 3187 3187 3187 3188 3188 3189 3189 3189 3189
3134 3136 3136 3137 3137 3137 3137 3137 3137 3137 3137 3138 3140 3142 3144 3143 3143 3143 3144 3144 3143 3142 3142 3142 3143 3144 3143 3145 3146 3146 3146 3146 3147 3148 3147 3147 3147 3146 3146 3146 3147 3147 3147 3147 3148 3148 3149 3149 3151 3152 3153 3153 3153 3154 3156 3159 3162 3165 3166 3167 3168 3169 3171 3172 3173 3174 3174 3175 3177 3179 3179 3181 3182 3183 3184 3184 3186 3186 3187 3187 3188 3188 3189 3189 3189
3133 3135 3136 3137 3137 3138 3138 3137 3137 3136 3134 3134 3135 3138 3138 3139 3141 3141 3143 3144 3144 3143 3142 3141 3142 3144 3143 3144 3146 3145 3145 3145 3145 3147 3147 3147 3147 3146 3146 3146 3146 3147 3147 3147 3148 3148 3148 3149 3150 3151 3152 3153 3154 3154 3155 3158 3160 3163 3165 3166 3167 3168 3170 3171 3172 3173 3173 3173 3176 3177 3178 3179 3180 3181 3182 3183 3184 3185 3186 3186 3187 3187 3188 3188 3189
3133 3134 3136 3136 3137 3138 3138 3138 3138 3137 3136 3136 3136 3137 3136 3137 3138 3139 3141 3142 3143 3143 3142 3141 3142 3144 3143 3144 3146 3146 3147 3145 3145 3145 3146 3147 3148 3147 3146 3146 3147 3147 3147 3147 3148 3148 3149 3149 3150 3151 3151 3153 3154 3154 3155 3156 3158 3161 3163 3165 3167 3168 3169 3170 3171 3172 3172 3173 3175 3175 3176 3178 3179 3180 3181 3182 3183 3184 3184 3185 3186 3186 3187 3187 3188
3133 3134 3135 3136 3137 3138 3138 3138 3139 3138 3138 3138 3137 3138 3138 3138 3138 3139 3141 3142 3143 3142 3142 3142 3142 3143 3142 3141 3142 3145 3146 3146 3147 3146 3145 3147 3148 3147 3145 3146 3147 3147 3147 3147 3148 3148 3149 3149 3150 3151 3151 3152 3153 3154 3155 3156 3158 3159 3162 3163 3165 3167 3168 3170 3170 3171 3171 3171 3172 3174 3175 3176 3177 3178 3179 3181 3182 3182 3183 3184 3185 3185 3186 3186 3187
3133 3134 3134 3135 3136 3137 3138 3138 3138 3138 3138 3138 3137 3136 3137 3137 3137 3137 3138 3139 3139 3139 3140 3140 3140 3141 3141 3141 3141 3143 3144 3145 3146 3145 3145 3146 3146 3146 3145 3144 3145 3146 3147 3147 3147 3148 3149 3149 3150 3151 3151 3152 3152 3153 3154 3155 3157 3159 3161 3162 3164 3166 3167 3168 3169 3170 3170 3170 3170 3172 3173 3174 3175 3177 3178 3179 3180 3181 3182 3183 3184 3184 3185 3185 3186
3132 3133 3133 3134 3136 3136 3137 3137 3137 3138 3138 3138 3137 3136 3136 3135 3135 3135 3135 3136 3136 3135 3136 3137 3138 3139 3141 3142 3142 3142 3143 3143 3143 3144 3145 3145 3145 3145 3145 3143 3142 3144 3145 3146 3147 3148 3148 3149 3150 3151 3151 3151 3152 3153 3153 3155 3156 3158 3160 3161 3163 3165 3166 3167 3168 3169 3169 3169 3169 3170 3171 3173 3174 3175 3176 3177 3178 3180 3180 3181 3182 3183 3184 3184 3185
3132 3132 3133 3134 3135 3136 3136 3137 3137 3137 3137 3137 3137 3137 3136 3136 3135 3135 3135 3137 3137 3135 3134 3136 3137 3138 3139 3141 3141 3141 3141 3142 3142 3142 3143 3143 3144 3145 3145 3144 3142 3143 3144 3145 3146 3147 3148 3148 3149 3150 3151 3151 3152 3153 3154 3155 3156 3157 3159 3160 3162 3164 3165 3166 3167 3168 3168 3168 3168 3169 3170 3171 3172 3173 3174 3176 3177 3178 3179 3180 3181 3181 3182 3183 3183
3131 3132 3133 3134 3135 3135 3136 3136 3136 3136 3136 3136 3136 3136 3136 3135 3135 3135 3135 3136 3136 3136 3135 3135 3136 3136 3137 3139 3139 3139 3138 3140 3141 3141 3141 3142 3142 3142 3143 3143 3143 3144 3144 3144 3146 3147 3147 3148 3148 3150 3151 3151 3152 3152 3153 3154 3155 3157 3158 3159 3161 3162 3164 3165 3166 3167 3167 3167 3168 3168 3169 3169 3170 3172 3173 3174 3175 3176 3177 3178 3179 3180 3181 3181 3182
3131 3132 3132 3133 3134 3134 3134 3134 3135 3135 3135 3135 3135 3135 3135 3134 3134 3135 3135 3135 3135 3135 3135 3135 3135 3135 3136 3137 3137 3137 3136 3138 3139 3139 3140 3141 3141 3142 3142 3143 3142 3143 3143 3144 3145 3146 3147 3147 3148 3149 3150 3151 3151 3152 3153 3154 3154 3156 3157 3158 3159 3161 3162 3164 3165 3166 3166 3166 3167 3167 3167 3168 3169 3170 3171 3172 3173 3174 3175 3176 3177 3178 3179 3180 3181
3130 3131 3131 3132 3133 3133 3133 3133 3133 3134 3134 3134 3134 3134 3134 3133 3133 3134 3134 3134 3134 3134 3134 3134 3135 3135 3136 3136 3135 3136 3136 3136 3138 3139 3139 3140 3141 3142 3142 3142 3142 3142 3143 3144 3144 3145 3146 3147 3148 3149 3149 3150 3151 3151 3152 3153 3153 3154 3155 3156 3158 3159 3161 3162 3163 3164 3165 3166 3166 3166 3166 3167 3168 3169 3169 3170 3171 3172 3173 3174 3175 3176 3177 3178 3179
3129 3130 3131 3131 3132 3132 3132 3132 3132 3133 3133 3132 3132 3132 3132 3132 3132 3132 3133 3133 3133 3133 3133 3133 3134 3134 3135 3135 3134 3135 3135 3135 3136 3137 3139 3139 3140 3142 3142 3141 3141 3142 3143 3143 3143 3145 3145 3146 3147 3148 3149 3149 3150 3150 3151 3152 3152 3153 3154 3155 3156 3157 3159 3160 3161 3162 3163 3164 3165 3165 3165 3166 3167 3167 3168 3168 3169 3170 3171 3172 3173 3174 3176 3177 3178
3128 3129 3130 3130 3131 3131 3131 3131 3132 3132 3131 3131 3131 3131 3131 3131 3131 3131 3131 3131 3131 3132 3132 3132 3132 3132 3133 3133 3133 3134 3134 3134 3134 3136 3138 3138 3139 3141 3140 3139 3140 3141 3142 3143 3143 3144 3145 3145 3146 3147 3148 3147 3148 3149 3150 3150 3151 3151 3152 3154 3155 3156 3157 3158 3159 3160 3161 3162 3163 3163 3164 3165 3165 3166 3166 3167 3167 3168 3169 3170 3171 3173 3174 3175 3176
3128 3129 3129 3130 3130 3130 3131 3131 3131 3131 3131 3130 3130 3130 3130 3130 3130 3130 3130 3130 3130 3131 3131 3131 3131 3131 3131 3132 3132 3133 3133 3134 3134 3135 3136 3137 3138 3137 3137 3138 3140 3140 3141 3143 3144 3143 3144 3144 3144 3145 3146 3146 3147 3148 3148 3149 3150 3150 3151 3152 3153 3154 3155 3156 3157 3158 3159 3160 3161 3161 3162 3163 3163 3164 3165 3165 3165 3166 3167 3169 3170 3171 3172 3173 3174
3127 3128 3128 3129 3129 3130 3130 3130 3130 3130 3130 3130 3129 3129 3129 3129 3129 3129 3129 3128 3129 3129 3130 3129 3130 3130 3130 3130 3131 3131 3132 3132 3133 3134 3134 3135 3135 3135 3135 3137 3139 3139 3141 3143 3143 3142 3143 3143 3143 3144 3145 3145 3146 3147 3148 3148 3149 3149 3149 3150 3151 3152 3153 3154 3155 3156 3157 3158 3159 3160 3160 3160 3162 3163 3163 3163 3164 3165 3166 3167 3168 3169 3170 3171 3172
3126 3127 3128 3128 3129 3129 3129 3130 3130 3130 3130 3129 3129 3129 3128 3128 3128 3128 3127 3127 3127 3128 3128 3128 3128 3129 3129 3128 3129 3130 3130 3131 3132 3132 3132 3132 3132 3133 3135 3136 3137 3138 3139 3139 3140 3141 3141 3141 3142 3143 3143 3144 3145 3146 3147 3147 3148 3148 3148 3148 3149 3150 3150 3150 3152 3153 3155 3156 3157 3158 3158 3159 3160 3161 3161 3162 3163 3163 3164 3165 3166 3166 3167 3168 3169
3126 3126 3127 3128 3128 3129 3129 3129 3129 3129 3129 3129 3129 3129 3128 3128 3127 3127 3126 3126 3126 3126 3127 3127 3127 3127 3127 3127 3128 3128 3128 3129 3130 3130 3130 3131 3130 3132 3135 3134 3134 3135 3136 3136 3137 3138 3139 3139 3140 3142 3142 3143 3144 3144 3145 3146 3146 3146 3146 3147 3147 3148 3148 3148 3149 3150 3151 3153 3155 3156 3157 3158 3158 3159 3160 3161 3162 3162 3162 3163 3164 3165 3165 3166 3167
3125 3126 3126 3127 3127 3128 3129 3129 3129 3129 3129 3129 3128 3128 3128 3127 3127 3126 3126 3125 3125 3125 3125 3125 3125 3125 3125 3126 3126 3127 3126 3127 3127 3127 3128 3129 3130 3131 3133 3133 3132 3132 3133 3134 3135 3135 3137 3138 3139 3141 3142 3142 3141 3142 3142 3143 3144 3145 3145 3145 3145 3146 3147 3146 3147 3148 3149 3150 3152 3154 3155 3155 3156 3157 3158 3159 3161 3161 3161 3161 3162 3163 3164 3164 3165
3124 3125 3126 3126 3126 3126 3128 3128 3128 3129 3128 3128 3128 3127 3127 3126 3126 3125 3125 3124 3124 3124 3123 3123 3123 3123 3124 3124 3124 3125 3124 3125 3125 3125 3126 3127 3128 3129 3131 3132 3131 3130 3131 3132 3133 3134 3134 3136 3137 3139 3140 3139 3140 3140 3140 3141 3141 3142 3142 3143 3144 3144 3144 3144 3145 3146 3146 3147 3149 3151 3152 3153 3154 3156 3157 3157 3158 3159 3159 3159 3160 3161 3162 3162 3163
3123 3124 3125 3125 3125 3125 3127 3128 3128 3128 3128 3128 3127 3127 3126 3125 3125 3125 3124 3123 3123 3123 3122 3121 3122 3122 3123 3123 3123 3123 3123 3123 3123 3124 3125 3125 3126 3127 3128 3130 3129 3129 3130 3131 3132 3133 3133 3134 3135 3137 3137 3138 3138 3138 3138 3138 3139 3139 3139 3140 3141 3141 3141 3142 3143 3143 3144 3145 3146 3147 3149 3150 3152 3153 3154 3155 3156 3157 3157 3158 3158 3159 3160 3160 3161
3122 3123 3123 3125 3125 3125 3126 3127 3127 3128 3128 3127 3127 3126 3126 3125 3125 3124 3123 3122 3122 3121 3121 3120 3121 3121 3122 3122 3122 3122 3122 3122 3123 3123 3123 3124 3125 3125 3126 3127 3127 3128 3129 3130 3131 3132 3133 3133 3134 3135 3136 3135 3135 3135 3136 3136 3136 3136 3137 3138 3138 3138 3139 3140 3141 3141 3142 3143 3143 3145 3146 3147 3150 3151 3151 3152 3153 3154 3155 3156 3156 3157 3157 3158 3159
3121 3121 3121 3123 3125 3125 3126 3126 3127 3127 3127 3127 3127 3126 3126 3125 3124 3123 3122 3122 3121 3121 3120 3120 3120 3120 3121 3121 3121 3121 3121 3122 3122 3122 3122 3123 3123 3124 3124 3125 3126 3127 3127 3129 3130 3130 3131 3132 3133 3133 3133 3133 3133 3133 3134 3134 3134 3134 3135 3135 3136 3136 3136 3137 3138 3139 3139 3140 3141 3142 3143 3144 3146 3147 3148 3149 3151 3152 3153 3154 3154 3155 3155 3156 3157
3120 3119 3119 3122 3123 3124 3125 3126 3126 3127 3127 3127 3127 3126 3125 3125 3124 3123 3122 3121 3121 3120 3120 3120 3120 3120 3120 3120 3120 3120 3121 3121 3121 3121 3121 3122 3122 3123 3123 3124 3125 3126 3126 3127 3128 3129 3130 3130 3131 3131 3130 3130 3131 3132 3132 3132 3133 3133 3133 3133 3134 3134 3134 3135 3136 3137 3138 3138 3139 3139 3140 3141 3142 3143 3145 3146 3147 3149 3150 3151 3152 3152 3153 3154 3155
3119 3119 3119 3120 3122 3123 3124 3124 3125 3126 3126 3126 3126 3125 3125 3124 3123 3122 3121 3121 3120 3120 3119 3119 3119 3119 3119 3119 3120 3120 3120 3120 3120 3120 3121 3121 3121 3122 3122 3123 3123 3124 3125 3126 3127 3127 3128 3128 3128 3129 3129 3130 3130 3130 3130 3130 3131 3131 3132 3132 3133 3133 3134 3134 3135 3136 3136 3136 3137 3137 3138 3139 3140 3141 3142 3143 3144 3145 3146 3147 3148 3150 3150 3151 3152
3118 3118 3118 3119 3120 3121 3122 3124 3124 3125 3125 3126 3126 3125 3124 3124 3123 3122 3121 3120 3120 3119 3119 3118 3118 3118 3118 3119 3119 3119 3119 3120 3120 3120 3120 3120 3121 3121 3122 3122 3122 3123 3123 3124 3125 3125 3126 3126 3126 3126 3127 3128 3128 3128 3128 3129 3129 3130 3130 3131 3131 3132 3132 3133 3134 3135 3135 3135 3135 3135 3136 3137 3138 3138 3139 3140 3141 3142 3143 3144 3145 3146 3146 3147 3149
3116 3117 3118 3118 3119 3120 3121 3122 3123 3124 3124 3125 3125 3124 3124 3123 3122 3121 3121 3120 3120 3120 3119 3119 3118 3118 3118 3119 3119 3119 3119 3119 3119 3119 3119 3120 3120 3120 3121 3121 3121 3122 3122 3122 3123 3123 3123 3123 3124 3124 3125 3125 3125 3126 3127 3127 3128 3128 3128 3129 3129 3130 3131 3131 3132 3133 3134 3134 3134 3134 3134 3135 3136 3136 3137 3138 3138 3140 3141 3142 3142 3142 3141 3143 3145
3115 3116 3117 3117 3118 3118 3119 3121 3122 3123 3123 3124 3124 3124 3123 3123 3122 3121 3120 3120 3120 3120 3119 3119 3119 3119 3119 3119 3119 3119 3119 3119 3119 3119 3119 3119 3119 3119 3120 3120 3120 3121 3121 3121 3121 3121 3121 3122 3122 3122 3122 3123 3123 3124 3125 3125 3126 3127 3127 3127 3128 3128 3129 3130 3131 3132 3132 3132 3132 3132 3132 3133 3133 3134 3135 3135 3136 3137 3137 3138 3139 3139 3138 3140 3142
3113 3114 3115 3116 3117 3117 3118 3119 3120 3122 3122 3123 3123 3123 3123 3123 3122 3121 3120 3120 3120 3120 3120 3119 3119 3119 3119 3119 3119 3119 3118 3118 3118 3118 3118 3118 3118 3118 3119 3119 3119 3120 3120 3120 3120 3120 3120 3120 3120 3121 3121 3121 3122 3122 3123 3123 3124 3125 3126 3126 3126 3127 3128 3129 3130 3130 3130 3130 3130 3130 3130 3130 3131 3131 3132 3132 3133 3133 3133 3135 3137 3137 3136 3137 3138
3110 3112 3113 3114 3115 3115 3117 3118 3119 3120 3121 3122 3122 3122 3122 3122 3121 3121 3120 3120 3119 3119 3119 3119 3119 3119 3119 3118 3118 3118 3118 3118 3118 3118 3118 3117 3117 3118 3118 3118 3118 3119 3119 3119 3119 3119 3119 3119 3120 3120 3120 3120 3120 3121 3121 3122 3123 3123 3124 3124 3125 3125 3126 3127 3128 3128 3128 3128 3128 3128 3128 3128 3128 3129 3130 3130 3131 3131 3132 3133 3135 3135 3136 3136 3136
3108 3109 3110 3111 3112 3113 3115 3116 3117 3119 3120 3120 3121 3121 3122 3121 3121 3121 3120 3119 3119 3119 3118 3118 3118 3118 3118 3118 3118 3118 3118 3118 3118 3117 3117 3117 3117 3117 3117 3117 3118 3118 3118 3118 3118 3118 3119 3119 3119 3119 3120 3120 3120 3120 3121 3121 3122 3122 3122 3123 3123 3124 3125 3125 3125 3126 3126 3126 3126 3126 3126 3126 3126 3127 3128 3128 3129 3130 3131 3132 3133 3134 3135 3135 3135